BOX118 EDDF-EBBR

Flight info

Callsign BOX118
Flight time 0h 34m
Altitude 22000
Route SOBRA2L/18 SOBRA Y180 BITBU Y181 GOPAS N852 LNO
Aircraft B77L/H-SDE1E2E3FGHIJ2J3J4J5M1RWXY/LB1D1

Departure

Time 2026-05-04 15:55
Airport Frankfurt Main Airport (EDDF)

Arrival

Time 2026-05-04 16:29
Airport Brussels Airport (EBBR)
Time Latitude Longitude Altitude Speed Heading
2026-05-04 15:14 50.03699 8.52655 355 ft 0 kts 339°
2026-05-04 15:15 50.03706 8.52651 355 ft 0 kts 339°
2026-05-04 15:44 50.03692 8.52659 357 ft 3 kts 339°
2026-05-04 15:44 50.03670 8.52672 357 ft 3 kts 339°
2026-05-04 15:45 50.03651 8.52683 357 ft 3 kts 339°
2026-05-04 15:45 50.03631 8.52699 356 ft 3 kts 312°
2026-05-04 15:45 50.03622 8.52727 356 ft 4 kts 265°
2026-05-04 15:45 50.03622 8.52735 356 ft 3 kts 251°
2026-05-04 15:46 50.03613 8.52701 356 ft 3 kts 249°
2026-05-04 15:46 50.03611 8.52693 356 ft 1 kts 249°
2026-05-04 15:49 50.03605 8.52668 354 ft 8 kts 250°
2026-05-04 15:49 50.03595 8.52562 352 ft 11 kts 268°
2026-05-04 15:49 50.03582 8.52444 354 ft 11 kts 251°
2026-05-04 15:50 50.03578 8.52426 355 ft 4 kts 251°
2026-05-04 15:50 50.03558 8.52349 352 ft 9 kts 239°
2026-05-04 15:50 50.03506 8.52309 349 ft 9 kts 183°
2026-05-04 15:50 50.03431 8.52304 335 ft 13 kts 182°
2026-05-04 15:51 50.03378 8.52301 333 ft 0 kts 181°
2026-05-04 15:51 50.03369 8.52311 336 ft 4 kts 139°
2026-05-04 15:51 50.03376 8.52348 336 ft 4 kts 58°
2026-05-04 15:51 50.03398 8.52423 336 ft 9 kts 81°
2026-05-04 15:52 50.03398 8.52449 337 ft 0 kts 89°
2026-05-04 15:53 50.03398 8.52451 338 ft 1 kts 89°
2026-05-04 15:53 50.03399 8.52482 338 ft 5 kts 89°
2026-05-04 15:53 50.03399 8.52541 338 ft 7 kts 89°
2026-05-04 15:54 50.03370 8.52591 336 ft 11 kts 170°
2026-05-04 15:54 50.03165 8.52596 338 ft 57 kts 180°
2026-05-04 15:54 50.02512 8.52602 337 ft 128 kts 179°
2026-05-04 15:54 50.01444 8.52618 368 ft 177 kts 179°
2026-05-04 15:55 50.00220 8.52665 959 ft 178 kts 180°
2026-05-04 15:55 49.98949 8.52730 1562 ft 186 kts 181°
2026-05-04 15:55 49.97645 8.52804 2157 ft 193 kts 180°
2026-05-04 15:55 49.96209 8.52890 2407 ft 221 kts 180°
2026-05-04 15:56 49.94621 8.52993 2939 ft 233 kts 179°
2026-05-04 15:56 49.93000 8.53104 3743 ft 233 kts 179°
2026-05-04 15:56 49.91388 8.53218 4645 ft 230 kts 178°
2026-05-04 15:56 49.89808 8.53329 5628 ft 224 kts 178°
2026-05-04 15:57 49.88255 8.53435 6490 ft 222 kts 179°
2026-05-04 15:57 49.86719 8.53227 7045 ft 229 kts 198°
2026-05-04 15:57 49.85155 8.52289 7299 ft 251 kts 201°
2026-05-04 15:57 49.83493 8.51319 7996 ft 258 kts 200°
2026-05-04 15:58 49.81791 8.50357 8797 ft 263 kts 200°
2026-05-04 15:58 49.80067 8.49384 9656 ft 265 kts 201°
2026-05-04 15:58 49.78339 8.48368 10399 ft 267 kts 207°
2026-05-04 15:58 49.76855 8.46572 10649 ft 290 kts 232°
2026-05-04 15:59 49.75969 8.43622 10857 ft 321 kts 257°
2026-05-04 15:59 49.76026 8.40023 11064 ft 351 kts 279°
2026-05-04 15:59 49.76682 8.36285 11613 ft 366 kts 283°
2026-05-04 15:59 49.77363 8.32441 12477 ft 373 kts 282°
2026-05-04 16:00 49.78017 8.28520 13488 ft 378 kts 282°
2026-05-04 16:00 49.78660 8.24548 14390 ft 382 kts 281°
2026-05-04 16:00 49.79304 8.20535 15262 ft 386 kts 281°
2026-05-04 16:00 49.79952 8.16471 16128 ft 390 kts 281°
2026-05-04 16:01 49.80606 8.12373 17004 ft 394 kts 281°
2026-05-04 16:01 49.81265 8.08228 17846 ft 399 kts 281°
2026-05-04 16:01 49.81931 8.04027 18616 ft 404 kts 281°
2026-05-04 16:01 49.82604 7.99778 19347 ft 408 kts 281°
2026-05-04 16:02 49.83283 7.95484 20066 ft 412 kts 281°
2026-05-04 16:02 49.83969 7.91147 20771 ft 416 kts 281°
2026-05-04 16:02 49.85536 7.82487 21995 ft 427 kts 289°
2026-05-04 16:03 49.86890 7.78333 21976 ft 433 kts 296°
2026-05-04 16:03 49.88443 7.74347 21978 ft 431 kts 298°
2026-05-04 16:03 49.90017 7.70402 21992 ft 429 kts 297°
2026-05-04 16:03 49.91554 7.66423 21994 ft 430 kts 296°
2026-05-04 16:04 49.93042 7.62401 21985 ft 430 kts 295°
2026-05-04 16:04 49.95920 7.54259 21995 ft 430 kts 294°
2026-05-04 16:04 49.97336 7.50159 21987 ft 431 kts 294°
2026-05-04 16:05 49.98746 7.46057 21989 ft 431 kts 294°
2026-05-04 16:05 50.00156 7.41951 21976 ft 431 kts 294°
2026-05-04 16:05 50.02958 7.33784 21999 ft 430 kts 294°
2026-05-04 16:06 50.04363 7.29682 22016 ft 430 kts 294°
2026-05-04 16:06 50.08122 7.18683 21990 ft 430 kts 294°
2026-05-04 16:07 50.09975 7.13243 21987 ft 429 kts 294°
2026-05-04 16:07 50.14170 7.00912 21992 ft 429 kts 294°
2026-05-04 16:08 50.15599 6.96814 21993 ft 430 kts 295°
2026-05-04 16:08 50.19913 6.84530 21997 ft 431 kts 295°
2026-05-04 16:09 50.22777 6.76298 21998 ft 432 kts 295°
2026-05-04 16:09 50.25638 6.68041 21987 ft 433 kts 295°
2026-05-04 16:10 50.28489 6.59793 21978 ft 434 kts 295°
2026-05-04 16:11 50.32694 6.47595 21729 ft 412 kts 295°
2026-05-04 16:11 50.34038 6.43677 21515 ft 407 kts 295°
2026-05-04 16:12 50.38036 6.31983 20445 ft 404 kts 295°
2026-05-04 16:12 50.41991 6.20374 19531 ft 399 kts 295°
2026-05-04 16:13 50.44582 6.12735 18723 ft 394 kts 295°
2026-05-04 16:13 50.47141 6.05167 17796 ft 390 kts 295°
2026-05-04 16:14 50.49646 5.97740 16983 ft 382 kts 296°
2026-05-04 16:14 50.52099 5.90440 16084 ft 378 kts 296°
2026-05-04 16:15 50.55754 5.79532 14737 ft 374 kts 297°
2026-05-04 16:16 50.58163 5.72315 13841 ft 371 kts 298°
2026-05-04 16:16 50.62671 5.62585 12407 ft 364 kts 310°
2026-05-04 16:17 50.65909 5.56500 11513 ft 360 kts 310°
2026-05-04 16:18 50.70547 5.47492 10540 ft 343 kts 309°
2026-05-04 16:18 50.72018 5.44593 10386 ft 332 kts 309°
2026-05-04 16:19 50.76142 5.36424 9970 ft 303 kts 309°
2026-05-04 16:19 50.78746 5.31252 9266 ft 297 kts 309°
2026-05-04 16:20 50.82459 5.23872 8307 ft 284 kts 309°
2026-05-04 16:20 50.84921 5.18961 7684 ft 286 kts 308°
2026-05-04 16:21 50.88362 5.11307 6755 ft 286 kts 293°
2026-05-04 16:22 50.89735 5.05476 6148 ft 277 kts 290°
2026-05-04 16:22 50.91686 4.97089 5316 ft 266 kts 290°
2026-05-04 16:23 50.93536 4.89399 4476 ft 227 kts 291°
2026-05-04 16:24 50.95590 4.80900 3641 ft 190 kts 289°
2026-05-04 16:25 50.95372 4.76965 3311 ft 186 kts 257°
2026-05-04 16:26 50.93889 4.69674 2466 ft 171 kts 251°
2026-05-04 16:26 50.92678 4.64416 1797 ft 160 kts 251°
2026-05-04 16:27 50.91932 4.61174 1373 ft 156 kts 251°
2026-05-04 16:28 50.90808 4.56321 745 ft 155 kts 250°
2026-05-04 16:28 50.89707 4.51521 183 ft 147 kts 251°
2026-05-04 16:29 50.88964 4.48305 183 ft 30 kts 250°
2026-05-04 16:30 50.89043 4.47903 170 ft 12 kts 17°
2026-05-04 16:31 50.89126 4.48159 168 ft 13 kts 70°
2026-05-04 16:31 50.89221 4.48577 168 ft 13 kts 70°
2026-05-04 16:32 50.89317 4.48993 170 ft 13 kts 70°
2026-05-04 16:33 50.89470 4.49150 166 ft 16 kts 15°
2026-05-04 16:33 50.89635 4.49258 157 ft 16 kts 22°
2026-05-04 16:34 50.89955 4.49388 138 ft 20 kts 14°
2026-05-04 16:34 50.90070 4.49435 131 ft 17 kts 14°
2026-05-04 16:35 50.90393 4.49566 127 ft 19 kts 14°
2026-05-04 16:35 50.90772 4.49721 127 ft 19 kts 15°
2026-05-04 16:36 50.90893 4.49737 124 ft 16 kts 317°
2026-05-04 16:36 50.90832 4.49447 124 ft 14 kts 246°
2026-05-04 16:37 50.90699 4.48988 123 ft 27 kts 245°
2026-05-04 16:37 50.90629 4.48747 121 ft 23 kts 245°
2026-05-04 16:37 50.90497 4.48286 121 ft 23 kts 245°
2026-05-04 16:38 50.90364 4.47825 122 ft 23 kts 245°
2026-05-04 16:39 50.90163 4.47131 126 ft 23 kts 245°
2026-05-04 16:39 50.90031 4.46669 132 ft 22 kts 245°
2026-05-04 16:40 50.89916 4.46278 140 ft 19 kts 245°
2026-05-04 16:40 50.89809 4.45907 144 ft 19 kts 245°
2026-05-04 16:41 50.89797 4.45677 146 ft 9 kts 335°
2026-05-04 16:41 50.89807 4.45672 146 ft 0 kts 342°
2026-05-04 16:42 50.89983 4.45591 146 ft 11 kts 336°
2026-05-04 16:43 50.90108 4.45486 146 ft 4 kts 334°
2026-05-04 16:43 50.90161 4.45448 145 ft 4 kts 335°
2026-05-04 16:43 50.90177 4.45437 145 ft 2 kts 335°
2026-05-04 16:44 50.90186 4.45430 145 ft 0 kts 335°